TimeCST,TemperatureF,Dew PointF,Humidity,Sea Level PressureIn,VisibilityMPH,Wind Direction,Wind SpeedMPH,Gust SpeedMPH,PrecipitationIn,Events,Conditions,WindDirDegrees,DateUTC
12:53 AM,37.0,17.1,44,29.91,10.0,North,6.9,-,N/A,,Clear,360,2012-12-07 06:53:00
1:53 AM,34.0,18.0,52,29.89,10.0,Calm,Calm,-,N/A,,Partly Cloudy,0,2012-12-07 07:53:00
2:53 AM,34.0,19.0,54,29.89,10.0,NW,4.6,-,N/A,,Clear,320,2012-12-07 08:53:00
3:53 AM,34.0,19.0,54,29.88,10.0,NNW,6.9,-,N/A,,Clear,330,2012-12-07 09:53:00
4:53 AM,33.1,19.0,56,29.88,10.0,WNW,5.8,-,N/A,,Mostly Cloudy,300,2012-12-07 10:53:00
5:53 AM,30.9,19.0,61,29.89,10.0,NW,5.8,-,N/A,,Mostly Cloudy,310,2012-12-07 11:53:00
6:53 AM,30.9,19.9,64,29.90,10.0,Calm,Calm,-,N/A,,Mostly Cloudy,0,2012-12-07 12:53:00
7:53 AM,28.0,18.0,66,29.91,10.0,Calm,Calm,-,N/A,,Clear,0,2012-12-07 13:53:00
8:53 AM,35.1,19.9,54,29.89,10.0,SW,6.9,-,N/A,,Clear,230,2012-12-07 14:53:00
9:53 AM,42.1,21.0,43,29.88,10.0,SSW,10.4,-,N/A,,Clear,210,2012-12-07 15:53:00
10:53 AM,45.0,21.0,39,29.87,10.0,South,8.1,-,N/A,,Clear,190,2012-12-07 16:53:00
11:53 AM,50.0,23.0,35,29.84,10.0,SW,12.7,-,N/A,,Clear,220,2012-12-07 17:53:00
12:53 PM,54.0,24.1,31,29.79,10.0,SW,12.7,-,N/A,,Clear,230,2012-12-07 18:53:00
1:53 PM,59.0,27.0,29,29.76,10.0,WSW,5.8,-,N/A,,Clear,250,2012-12-07 19:53:00
2:53 PM,61.0,25.0,25,29.73,10.0,North,6.9,-,N/A,,Clear,350,2012-12-07 20:53:00
3:53 PM,62.1,26.1,25,29.74,10.0,Calm,Calm,-,N/A,,Clear,0,2012-12-07 21:53:00
4:53 PM,61.0,24.1,24,29.76,10.0,NNE,9.2,-,N/A,,Clear,20,2012-12-07 22:53:00
5:53 PM,52.0,23.0,32,29.81,10.0,NE,10.4,-,N/A,,Clear,40,2012-12-07 23:53:00
6:53 PM,48.2,24.8,40,29.86,10.0,NE,13.8,-,N/A,,Clear,50,2012-12-08 00:53:00
7:53 PM,45.0,24.1,44,29.88,10.0,NE,13.8,-,N/A,,Clear,40,2012-12-08 01:53:00
8:53 PM,42.1,24.1,49,29.88,10.0,NE,13.8,-,N/A,,Clear,50,2012-12-08 02:53:00
9:53 PM,39.0,23.0,53,29.89,10.0,ENE,13.8,-,N/A,,Clear,60,2012-12-08 03:53:00
10:53 PM,36.0,23.0,59,29.93,10.0,NE,10.4,-,N/A,,Clear,40,2012-12-08 04:53:00
11:53 PM,36.0,23.0,59,29.94,10.0,NNE,10.4,-,N/A,,Clear,30,2012-12-08 05:53:00